Overview Statistics Trail Chart Weather Telemetry Raw packets
 

This is the latest recevied weather packets stored in our database for station/object DL4MGC-10. If no packets are shown the sender has not sent any weather packets the latest 10 day(s).

<< 1 2 3 4 5 6 7 >>
Time Temp. Humidity Pressure Rain* Wind** Luminosity Snow
1788634664 20.56° C 71% 1024.1 hPa - - - -
1788633764 21.67° C 63% 1023.9 hPa - - - -
1788632864 22.22° C 61% 1023.7 hPa - - - -
1788631964 22.78° C 61% 1023.5 hPa - - - -
1788631064 23.33° C 61% 1023.2 hPa - - - -
1788630164 23.33° C 61% 1022.9 hPa - - - -
1788629264 23.89° C 57% 1022.8 hPa - - - -
1788628364 24.44° C 53% 1022.5 hPa - - - -
1788627464 25° C 52% 1022.4 hPa - - - -
1788626563 25° C 52% 1022.3 hPa - - - -
1788625663 25.56° C 50% 1022.2 hPa - - - -
1788624763 26.11° C 50% 1022.2 hPa - - - -
1788623863 26.67° C 49% 1022.1 hPa - - - -
1788622963 26.67° C 54% 1022 hPa - - - -
1788622063 26.11° C 53% 1022 hPa - - - -
1788621163 26.11° C 54% 1021.9 hPa - - - -
1788620263 26.67° C 56% 1022 hPa - - - -
1788619363 25.56° C 56% 1022.1 hPa - - - -
1788618462 25.56° C 57% 1022.2 hPa - - - -
1788617562 26.67° C 55% 1022.2 hPa - - - -
1788616662 26.67° C 55% 1022.3 hPa - - - -
1788615762 26.67° C 52% 1022.4 hPa - - - -
1788614862 26.67° C 52% 1022.4 hPa - - - -
1788613962 26.11° C 54% 1022.4 hPa - - - -
1788613062 26.11° C 60% 1022.5 hPa - - - -

* Rain since midnight (hover to see other rain measurements)
** Current wind speed in m/s (hover to see current wind gust speed)